User: anonymous   Login
Location: Radford
(37.1320°N, 80.5770°W)
Time: 19:06:03
(UTC-04:00)
Language:

Okean 1-7 - Orbit

View from above orbital plane
View from above orbital plane
View from above satellite
View from above satellite

Ground track
Ground track

The orbit data is extracted from the following two-line orbital elements,

1 23317U 94066A   14295.46031010  .00002124  00000-0  24059-3 0  6884
2 23317 082.5361 308.5846 0021178 042.2279 106.2665 14.85814451 82009
Epoch (UTC): 22 October 2014 11:02:50
Eccentricity: 0.0021178
inclination: 82.5361°
perigee height: 596 km
apogee height: 626 km
right ascension of ascending node: 308.5846°
argument of perigee: 42.2279°
revolutions per day: 14.85814451
mean anomaly at epoch: 106.2665°
orbit number at epoch: 8200

The dashed part of the orbit path shows where the satellite is in the earth's shadow,  

DLR